| time (UTC) | temp F | wind direction | speed knots | gust knots | rain 1hr in | rain 24hr in | rain mn in | humidity % | barometer mb |
| 20260904121516 | 95 | 276 | 0.9 | 2.6 | 0.00 | 0.00 | 0.00 | 16 | 1023.3 |
| 20260904120516 | 95 | 281 | 1.7 | 3.5 | 0.00 | 0.00 | 0.00 | 17 | 1023.4 |
| 20260904115556 | 95 | 316 | 1.7 | 2.6 | 0.00 | 0.00 | 0.00 | 16 | 1023.6 |
| 20260904114516 | 95 | 292 | 0.9 | 2.6 | 0.00 | 0.00 | 0.00 | 17 | 1023.8 |
| 20260904113516 | 94 | 249 | 0.9 | 1.7 | 0.00 | 0.00 | 0.00 | 19 | 1023.8 |
| 20260904112516 | 92 | 249 | 0.9 | 2.6 | 0.00 | 0.00 | 0.00 | 19 | 1023.8 |
| 20260904111556 | 92 | 267 | 0.9 | 2.6 | 0.00 | 0.00 | 0.00 | 19 | 1024.1 |
| 20260904110516 | 92 | 260 | 0.9 | 2.6 | 0.00 | 0.00 | 0.00 | 20 | 1024.3 |
| 20260904105556 | 91 | 179 | 0.9 | 1.7 | 0.00 | 0.00 | 0.00 | 20 | 1024.2 |
| 20260904104516 | 90 | 189 | 1.7 | 2.6 | 0.00 | 0.00 | 0.00 | 21 | 1024.4 |
| 20260904103516 | 88 | 261 | 0.9 | 2.6 | 0.00 | 0.00 | 0.00 | 22 | 1024.5 |
| 20260904102516 | 87 | 274 | 1.7 | 3.5 | 0.00 | 0.00 | 0.00 | 22 | 1024.5 |
| 20260904101516 | 86 | 269 | 0.9 | 3.5 | 0.00 | 0.00 | 0.00 | 23 | 1024.6 |
| 20260904100516 | 85 | 274 | 2.6 | 3.5 | 0.00 | 0.00 | 0.00 | 24 | 1024.7 |
| 20260904095516 | 85 | 269 | 0.9 | 3.5 | 0.00 | 0.00 | 0.00 | 24 | 1024.8 |
| 20260904094516 | 84 | 274 | 0.9 | 2.6 | 0.00 | 0.00 | 0.00 | 25 | 1024.7 |
| 20260904093516 | 83 | 266 | 0.9 | 1.7 | 0.00 | 0.00 | 0.00 | 25 | 1024.6 |
| 20260904092517 | 83 | 258 | 0.9 | 2.6 | 0.00 | 0.00 | 0.00 | 25 | 1024.5 |
| 20260904091516 | 81 | 63 | 0.9 | 2.6 | 0.00 | 0.00 | 0.00 | 25 | 1024.5 |
| 20260904090516 | 80 | 72 | 1.7 | 3.5 | 0.00 | 0.00 | 0.00 | 26 | 1024.3 |
| 20260904085516 | 79 | 72 | 2.6 | 3.5 | 0.00 | 0.00 | 0.00 | 27 | 1024.2 |
| 20260904084516 | 77 | 36 | 2.6 | 5.2 | 0.00 | 0.00 | 0.00 | 28 | 1023.9 |
| 20260904083556 | 76 | 50 | 2.6 | 7.0 | 0.00 | 0.00 | 0.00 | 28 | 1023.9 |
| 20260904082516 | 75 | 44 | 3.5 | 7.0 | 0.00 | 0.00 | 0.00 | 29 | 1023.8 |
| 20260904081616 | 74 | 45 | 2.6 | 7.0 | 0.00 | 0.00 | 0.00 | 29 | 1023.9 |
| 20260904080516 | 74 | 60 | 2.6 | 7.0 | 0.00 | 0.00 | 0.00 | 29 | 1023.8 |
| 20260904075516 | 73 | 68 | 2.6 | 7.0 | 0.00 | 0.00 | 0.00 | 29 | 1023.7 |
| 20260904074516 | 73 | 63 | 3.5 | 7.0 | 0.00 | 0.00 | 0.00 | 30 | 1023.7 |
| 20260904073516 | 72 | 66 | 2.6 | 6.1 | 0.00 | 0.00 | 0.00 | 31 | 1023.9 |
| 20260904072556 | 71 | 44 | 3.5 | 7.8 | 0.00 | 0.00 | 0.00 | 31 | 1023.7 |
| 20260904071516 | 71 | 53 | 2.6 | 5.2 | 0.00 | 0.00 | 0.00 | 33 | 1024.0 |
| 20260904070517 | 70 | 42 | 1.7 | 5.2 | 0.00 | 0.00 | 0.00 | 33 | 1024.0 |
| 20260904065516 | 70 | 49 | 3.5 | 5.2 | 0.00 | 0.00 | 0.00 | 33 | 1023.8 |
| 20260904064516 | 69 | 53 | 1.7 | 4.3 | 0.00 | 0.00 | 0.00 | 33 | 1023.8 |
| 20260904063556 | 69 | 40 | 2.6 | 6.1 | 0.00 | 0.00 | 0.00 | 33 | 1023.7 |
| 20260904062556 | 68 | 48 | 2.6 | 4.3 | 0.00 | 0.00 | 0.00 | 34 | 1023.6 |
| 20260904061516 | 68 | 47 | 2.6 | 5.2 | 0.00 | 0.00 | 0.00 | 33 | 1023.6 |
| 20260904060516 | 69 | 58 | 1.7 | 4.3 | 0.00 | 0.00 | 0.00 | 33 | 1023.7 |
| 20260904055516 | 69 | 73 | 1.7 | 3.5 | 0.00 | 0.00 | 0.00 | 33 | 1023.6 |
| 20260904054516 | 69 | 46 | 0.9 | 1.7 | 0.00 | 0.00 | 0.00 | 33 | 1023.5 |
| 20260904053516 | 68 | 50 | 1.7 | 3.5 | 0.00 | 0.00 | 0.00 | 34 | 1023.3 |
| 20260904052516 | 68 | 55 | 2.6 | 4.3 | 0.00 | 0.00 | 0.00 | 34 | 1023.2 |
| 20260904051516 | 68 | 78 | 1.7 | 2.6 | 0.00 | 0.00 | 0.00 | 34 | 1023.3 |
| 20260904050516 | 69 | 79 | 1.7 | 2.6 | 0.00 | 0.00 | 0.00 | 33 | 1023.3 |
| 20260904045516 | 69 | 78 | 0.9 | 4.3 | 0.00 | 0.00 | 0.00 | 32 | 1023.1 |
| 20260904044516 | 70 | 48 | 3.5 | 6.1 | 0.00 | 0.00 | 0.00 | 32 | 1023.1 |
| 20260904043516 | 70 | 53 | 3.5 | 6.1 | 0.00 | 0.00 | 0.00 | 31 | 1023.2 |
| 20260904042516 | 71 | 49 | 2.6 | 6.1 | 0.00 | 0.00 | 0.00 | 30 | 1023.2 |
| 20260904041516 | 71 | 54 | 3.5 | 8.7 | 0.00 | 0.00 | 0.00 | 30 | 1023.2 |
| 20260904040516 | 72 | 57 | 3.5 | 6.1 | 0.00 | 0.00 | 0.00 | 29 | 1023.2 |
| 20260904035516 | 72 | 63 | 4.3 | 9.6 | 0.00 | 0.00 | 0.00 | 28 | 1023.3 |
| 20260904034516 | 72 | 55 | 4.3 | 9.6 | 0.00 | 0.00 | 0.00 | 28 | 1023.3 |
| 20260904033556 | 72 | 45 | 6.1 | 8.7 | 0.00 | 0.00 | 0.00 | 29 | 1023.5 |
| 20260904032516 | 72 | 48 | 4.3 | 7.8 | 0.00 | 0.00 | 0.00 | 30 | 1023.5 |
| 20260904031556 | 72 | 43 | 3.5 | 5.2 | 0.00 | 0.00 | 0.00 | 30 | 1023.4 |
| 20260904030516 | 72 | 43 | 3.5 | 6.1 | 0.00 | 0.00 | 0.00 | 30 | 1023.3 |
| 20260904025516 | 72 | 43 | 3.5 | 7.0 | 0.00 | 0.00 | 0.00 | 29 | 1023.3 |
| 20260904024516 | 73 | 41 | 3.5 | 5.2 | 0.00 | 0.00 | 0.00 | 29 | 1023.2 |
| 20260904023516 | 73 | 42 | 2.6 | 5.2 | 0.00 | 0.00 | 0.00 | 29 | 1023.2 |
| 20260904022556 | 74 | 53 | 2.6 | 5.2 | 0.00 | 0.00 | 0.00 | 29 | 1023.3 |
| 20260904021556 | 74 | 68 | 1.7 | 5.2 | 0.00 | 0.00 | 0.00 | 28 | 1023.3 |
| 20260904020516 | 75 | 74 | 2.6 | 4.3 | 0.00 | 0.00 | 0.00 | 27 | 1023.4 |
| 20260904015516 | 76 | 64 | 3.5 | 6.1 | 0.00 | 0.00 | 0.00 | 27 | 1023.5 |
| 20260904014517 | 76 | 70 | 2.6 | 6.1 | 0.00 | 0.00 | 0.00 | 26 | 1023.6 |
| 20260904013616 | 76 | 65 | 2.6 | 5.2 | 0.00 | 0.00 | 0.00 | 26 | 1023.7 |
| 20260904012516 | 77 | 69 | 2.6 | 7.0 | 0.00 | 0.00 | 0.00 | 26 | 1023.8 |
| 20260904011516 | 77 | 58 | 3.5 | 7.8 | 0.00 | 0.00 | 0.00 | 25 | 1023.6 |
| 20260904010516 | 78 | 51 | 4.3 | 7.8 | 0.00 | 0.00 | 0.00 | 25 | 1023.8 |
| 20260904005516 | 78 | 60 | 4.3 | 7.8 | 0.00 | 0.00 | 0.00 | 25 | 1023.9 |
| 20260904004517 | 78 | 49 | 4.3 | 8.7 | 0.00 | 0.00 | 0.00 | 25 | 1023.8 |
| 20260904003516 | 79 | 62 | 2.6 | 6.1 | 0.00 | 0.00 | 0.00 | 25 | 1023.8 |
| 20260904002616 | 79 | 62 | 2.6 | 6.1 | 0.00 | 0.00 | 0.00 | 24 | 1023.8 |
| 20260904001616 | 79 | 59 | 2.6 | 6.1 | 0.00 | 0.00 | 0.00 | 24 | 1023.8 |
| 20260904000516 | 79 | 49 | 2.6 | 5.2 | 0.00 | 0.00 | 0.00 | 24 | 1023.8 |
| 20260903235516 | 80 | 53 | 2.6 | 6.1 | 0.00 | 0.00 | 0.00 | 25 | 1023.8 |
| 20260903234516 | 80 | 67 | 2.6 | 4.3 | 0.00 | 0.00 | 0.00 | 24 | 1023.6 |
| 20260903233556 | 81 | 88 | 1.7 | 4.3 | 0.00 | 0.00 | 0.00 | 24 | 1023.5 |
| 20260903232556 | 81 | 87 | 1.7 | 3.5 | 0.00 | 0.00 | 0.00 | 23 | 1023.5 |
| 20260903231516 | 81 | 75 | 1.7 | 3.5 | 0.00 | 0.00 | 0.00 | 24 | 1023.4 |
| 20260903230516 | 81 | 77 | 1.7 | 2.6 | 0.00 | 0.00 | 0.00 | 25 | 1023.3 |
| 20260903225516 | 82 | 72 | 1.7 | 3.5 | 0.00 | 0.00 | 0.00 | 25 | 1023.5 |
| 20260903224516 | 82 | 61 | 0.9 | 2.6 | 0.00 | 0.00 | 0.00 | 25 | 1023.2 |
| 20260903223516 | 83 | 61 | 1.7 | 2.6 | 0.00 | 0.00 | 0.00 | 24 | 1023.2 |
| 20260903222516 | 83 | 61 | 0.9 | 2.6 | 0.00 | 0.00 | 0.00 | 24 | 1023.2 |
| 20260903221516 | 83 | 48 | 2.6 | 4.3 | 0.00 | 0.00 | 0.00 | 24 | 1022.9 |
| 20260903220516 | 84 | 43 | 2.6 | 3.5 | 0.00 | 0.00 | 0.00 | 24 | 1023.0 |
| 20260903215556 | 84 | 55 | 1.7 | 3.5 | 0.00 | 0.00 | 0.00 | 24 | 1023.0 |
| 20260903214556 | 85 | 63 | 2.6 | 3.5 | 0.00 | 0.00 | 0.00 | 23 | 1022.8 |
| 20260903213516 | 85 | 65 | 1.7 | 3.5 | 0.00 | 0.00 | 0.00 | 23 | 1022.7 |
| 20260903212516 | 85 | 65 | 1.7 | 3.5 | 0.00 | 0.00 | 0.00 | 23 | 1022.8 |
| 20260903211516 | 86 | 65 | 1.7 | 2.6 | 0.00 | 0.00 | 0.00 | 23 | 1022.6 |
| 20260903210516 | 86 | 65 | 1.7 | 3.5 | 0.00 | 0.00 | 0.00 | 22 | 1022.7 |
| 20260903205616 | 87 | 65 | 1.7 | 2.6 | 0.00 | 0.00 | 0.00 | 22 | 1022.7 |
| 20260903204516 | 87 | 260 | 0.9 | 1.7 | 0.00 | 0.00 | 0.00 | 22 | 1022.3 |
| 20260903203516 | 85 | 260 | 0.9 | 1.7 | 0.00 | 0.00 | 0.00 | 24 | 1022.1 |
| 20260903202516 | 85 | 0.0 | 0.0 | 0.00 | 0.00 | 0.00 | 26 | 1022.1 | |
| 20260903201516 | 85 | 0.0 | 0.0 | 0.00 | 0.00 | 0.00 | 25 | 1021.8 | |
| 20260903200516 | 86 | 0.0 | 0.0 | 0.00 | 0.00 | 0.00 | 27 | 1021.9 | |
| 20260903195556 | 86 | 0.0 | 0.0 | 0.00 | 0.00 | 0.00 | 24 | 1021.6 | |
| 20260903194556 | 88 | 0.0 | 0.0 | 0.00 | 0.00 | 0.00 | 24 | 1021.5 | |
| 20260903193516 | 88 | 0.0 | 0.0 | 0.00 | 0.00 | 0.00 | 23 | 1021.4 | |
| 20260903192516 | 89 | 0.0 | 0.0 | 0.00 | 0.00 | 0.00 | 23 | 1021.4 | |
| 20260903191516 | 90 | 0.0 | 0.0 | 0.00 | 0.00 | 0.00 | 22 | 1021.4 | |
| 20260903190556 | 92 | 260 | 0.0 | 0.9 | 0.00 | 0.00 | 0.00 | 21 | 1021.3 |
| 20260903185516 | 93 | 260 | 0.0 | 0.9 | 0.00 | 0.00 | 0.00 | 20 | 1021.4 |
| 20260903184556 | 94 | 260 | 0.9 | 1.7 | 0.00 | 0.00 | 0.00 | 18 | 1021.3 |
| 20260903183516 | 95 | 260 | 0.9 | 1.7 | 0.00 | 0.00 | 0.00 | 17 | 1021.4 |
| 20260903182516 | 97 | 260 | 0.9 | 1.7 | 0.00 | 0.00 | 0.00 | 17 | 1021.5 |
| 20260903181556 | 98 | 260 | 0.9 | 2.6 | 0.00 | 0.00 | 0.00 | 16 | 1021.6 |
| 20260903180516 | 98 | 266 | 0.9 | 3.5 | 0.00 | 0.00 | 0.00 | 15 | 1021.5 |
| 20260903175516 | 99 | 265 | 1.7 | 6.1 | 0.00 | 0.00 | 0.00 | 15 | 1021.7 |
| 20260903174516 | 99 | 270 | 1.7 | 4.3 | 0.00 | 0.00 | 0.00 | 14 | 1021.6 |
| 20260903173516 | 99 | 252 | 1.7 | 3.5 | 0.00 | 0.00 | 0.00 | 14 | 1021.6 |
| 20260903172516 | 100 | 241 | 1.7 | 4.3 | 0.00 | 0.00 | 0.00 | 14 | 1021.6 |
| 20260903171516 | 99 | 271 | 2.6 | 6.1 | 0.00 | 0.00 | 0.00 | 14 | 1021.7 |
| 20260903170516 | 100 | 250 | 1.7 | 4.3 | 0.00 | 0.00 | 0.00 | 14 | 1021.8 |
| 20260903165516 | 100 | 279 | 3.5 | 7.0 | 0.00 | 0.00 | 0.00 | 14 | 1021.8 |
| 20260903164516 | 100 | 266 | 2.6 | 7.8 | 0.00 | 0.00 | 0.00 | 14 | 1021.7 |
| 20260903163557 | 100 | 228 | 2.6 | 7.8 | 0.00 | 0.00 | 0.00 | 14 | 1021.8 |
| 20260903162516 | 100 | 262 | 3.5 | 7.8 | 0.00 | 0.00 | 0.00 | 14 | 1021.9 |
| 20260903161516 | 100 | 232 | 2.6 | 7.0 | 0.00 | 0.00 | 0.00 | 14 | 1021.9 |
| 20260903160516 | 100 | 248 | 2.6 | 6.1 | 0.00 | 0.00 | 0.00 | 15 | 1022.0 |
| 20260903155516 | 100 | 266 | 4.3 | 10.4 | 0.00 | 0.00 | 0.00 | 15 | 1022.0 |
| 20260903154516 | 100 | 261 | 2.6 | 7.8 | 0.00 | 0.00 | 0.00 | 16 | 1022.1 |
| 20260903153636 | 100 | 265 | 2.6 | 7.8 | 0.00 | 0.00 | 0.00 | 15 | 1022.1 |
| 20260903152516 | 100 | 286 | 3.5 | 7.0 | 0.00 | 0.00 | 0.00 | 14 | 1022.2 |
| 20260903151516 | 100 | 263 | 2.6 | 7.0 | 0.00 | 0.00 | 0.00 | 15 | 1022.3 |
| 20260903150516 | 100 | 167 | 0.9 | 6.1 | 0.00 | 0.00 | 0.00 | 14 | 1022.3 |
| 20260903145516 | 98 | 280 | 2.6 | 7.8 | 0.00 | 0.00 | 0.00 | 14 | 1022.5 |
| 20260903144516 | 99 | 303 | 4.3 | 8.7 | 0.00 | 0.00 | 0.00 | 13 | 1022.7 |
| 20260903143516 | 99 | 257 | 2.6 | 5.2 | 0.00 | 0.00 | 0.00 | 11 | 1022.7 |
| 20260903142516 | 98 | 296 | 4.3 | 8.7 | 0.00 | 0.00 | 0.00 | 11 | 1022.6 |
| 20260903141516 | 98 | 258 | 2.6 | 6.1 | 0.00 | 0.00 | 0.00 | 14 | 1022.8 |
| 20260903140517 | 98 | 269 | 3.5 | 8.7 | 0.00 | 0.00 | 0.00 | 15 | 1022.9 |
| 20260903135556 | 98 | 214 | 1.7 | 6.1 | 0.00 | 0.00 | 0.00 | 16 | 1023.0 |
| 20260903134516 | 97 | 299 | 3.5 | 8.7 | 0.00 | 0.00 | 0.00 | 15 | 1023.2 |
| 20260903133516 | 97 | 355 | 3.5 | 9.6 | 0.00 | 0.00 | 0.00 | 15 | 1023.3 |
| 20260903132556 | 98 | 274 | 5.2 | 8.7 | 0.00 | 0.00 | 0.00 | 17 | 1023.5 |
| 20260903131516 | 97 | 285 | 1.7 | 7.0 | 0.00 | 0.00 | 0.00 | 18 | 1023.6 |
| 20260903130556 | 97 | 279 | 3.5 | 7.0 | 0.00 | 0.00 | 0.00 | 17 | 1023.6 |
| 20260903125516 | 96 | 260 | 4.3 | 9.6 | 0.00 | 0.00 | 0.00 | 18 | 1023.6 |
| 20260903124516 | 96 | 278 | 2.6 | 8.7 | 0.00 | 0.00 | 0.00 | 19 | 1023.7 |
| 20260903123516 | 95 | 15 | 2.6 | 7.8 | 0.00 | 0.00 | 0.00 | 20 | 1023.7 |
| 20260903122516 | 96 | 271 | 4.3 | 7.8 | 0.00 | 0.00 | 0.00 | 20 | 1023.8 |